Flag for Canada Weather past 2 weeks in Rae-Edzo, Northwest Territories, Canada

Now
61 °F

Refreshingly cool.


Feels Like: 61 °F
Forecast: 48 / 58 °F
Wind: 8 mph from Northwest

Location: Lac La Martre

Current Time: Aug 20, 2014 at 5:30:47 PM

Latest Report: Aug 20, 2014 at 5:00 PM


Visibility: N/A

Pressure: 30.06 "Hg

Humidity: 41%

Dew point: 37 °F

Location of Rae-EdzoLocation

Historic Weather in Rae-Edzo — Graph

°F

Rae-Edzo temperature yesterday

Maximum temperature yesterday: 54 °F (at 7:00 PM)
Minimum temperature yesterday: 43 °F (at 4:00 AM)
Average temperature yesterday: 48 °F

Past Weeks' High & Low Weather Summary

 TemperatureHumidityPressure
High82 °F (Aug 16, 3:00 PM)97% (Aug 11, 6:00 AM)30.12 "Hg (Aug 11, 6:00 AM)
Low30 °F (Aug 20, 6:00 AM)31% (Aug 16, 5:00 PM)29.49 "Hg (Aug 16, 5:00 PM)
Average58 °F68%29.85 "Hg
* Reported Aug 5 4:00 PM — Aug 20 4:00 PM, Rae-Edzo, Weather by CustomWeather, © 2014

Note: Actual official high and low records may vary slightly from our data, if they occured in-between our weather recording intervals... More about our weather records

Advertising

Rae-Edzo weather history for previous 24 hours

 ConditionsComfort  
Time TempWeatherWind HumidityBarometerVisibility
4:00 PM
Aug 20
60 °FRefreshingly cool.7 mph37%30.05 "HgN/A
3:00 PM59 °FRefreshingly cool.8 mph43%30.04 "HgN/A
2:00 PM59 °FRefreshingly cool.6 mph42%30.02 "HgN/A
1:00 PM58 °FRefreshingly cool.6 mph46%30.01 "HgN/A
12:00 PM56 °FRefreshingly cool.6 mph52%30.00 "HgN/A
11:00 AM56 °FRefreshingly cool.3 mph55%29.99 "HgN/A
10:00 AM51 °FCool.3 mph58%29.98 "HgN/A
9:00 AM47 °FCool.5 mph70%29.97 "HgN/A
8:00 AM40 °FChilly.2 mph91%29.97 "HgN/A
7:00 AM31 °FChilly.1 mph95%29.96 "HgN/A
6:00 AM30 °FChilly.2 mph95%29.95 "HgN/A
5:00 AM30 °FChilly.No wind96%29.94 "HgN/A
4:00 AM32 °FChilly.1 mph92%29.92 "HgN/A
3:00 AM32 °FChilly.3 mph95%29.91 "HgN/A
2:00 AM34 °FChilly.5 mph92%29.90 "HgN/A
1:00 AM38 °FChilly.5 mph84%29.89 "HgN/A
12:00 AM44 °FQuite cool.5 mph70%29.88 "HgN/A
11:00 PM
Aug 19
49 °FCool.5 mph60%29.87 "HgN/A
10:00 PM51 °FCool.3 mph57%29.86 "HgN/A
9:00 PM54 °FCool.6 mph48%29.85 "HgN/A
8:00 PM54 °FCool.3 mph51%29.84 "HgN/A
7:00 PM54 °FCool.5 mph54%29.84 "HgN/A
6:00 PM53 °FCool.7 mph56%29.84 "HgN/A
5:00 PM52 °FCool.7 mph64%29.83 "HgN/A
Weather by CustomWeather, © 2014

See weather overviewHow to use our weather pages